Home > Weather > Sola > Past weeks

Flag for Norway Weather for the Past 2 Weeks in Sola, Norway

Now
48 °F

Broken clouds.


Feels Like: 45 °F
Forecast: 44 / 54 °F
Wind: 8 mph from Southwest

Location: Stavanger / Sola

Current Time: May 3, 2016 at 10:54:52 AM

Latest Report: May 3, 2016 at 9:50 AM


Visibility: N/A

Pressure: 29.86 "Hg

Humidity: 82%

Dew Point: 43 °F

Location of SolaLocation

Historic Weather in Sola — Graph

°F

Sola Temperature Yesterday

Maximum temperature yesterday: 48 °F (at 12:20 PM)
Minimum temperature yesterday: 45 °F (at 2:50 AM)
Average temperature yesterday: 47 °F

High & Low Weather Summary for the Past Weeks

 TemperatureHumidityPressure
High52 °F (Apr 26, 4:20 PM)100% (Apr 29, 3:50 AM)30.39 "Hg (Apr 29, 3:50 AM)
Low30 °F (Apr 25, 5:50 AM)29% (Apr 26, 12:20 PM)29.50 "Hg (Apr 25, 12:50 PM)
Average44 °F71%29.91 "Hg
* Reported Apr 18 9:20 AM — May 3 9:20 AM, Sola, Weather by CustomWeather, © 2016

Note: Actual official high and low records may vary slightly from our data, if they occured in-between our weather recording intervals... More about our weather records

Advertising

Sola Weather History for the Previous 24 Hours

Scroll right to see more
 ConditionsComfort  
Time TempWeatherWind HumidityBarometerVisibility
9:20 AM
Tue, May 3
46 °FBroken clouds.8 mph87%29.86 "HgN/A
8:50 AM46 °FBroken clouds.8 mph93%29.86 "HgN/A
8:20 AM46 °FBroken clouds.7 mph93%29.86 "HgN/A
7:50 AM46 °FBroken clouds.6 mph87%29.83 "HgN/A
7:20 AM46 °FBroken clouds.8 mph93%29.83 "HgN/A
6:50 AM46 °FBroken clouds.3 mph93%29.83 "HgN/A
6:20 AM46 °FPassing clouds.7 mph93%29.83 "HgN/A
5:50 AM46 °FPartly cloudy.6 mph93%29.83 "HgN/A
4:50 AM46 °FPassing clouds.7 mph93%29.83 "Hg6 mi
3:50 AM46 °FPassing clouds.8 mph93%29.83 "HgN/A
2:50 AM46 °FLight rain. Passing clouds.7 mph100%29.83 "HgN/A
1:50 AM46 °FPartly cloudy.9 mph93%29.83 "HgN/A
12:50 AM46 °FPartly cloudy.9 mph100%29.86 "Hg4 mi
11:50 PM
Mon, May 2
48 °FLight rain. Partly cloudy.13 mph87%29.83 "Hg6 mi
11:20 PM48 °FLight rain. Passing clouds.14 mph87%29.86 "Hg5 mi
10:50 PM48 °FLight rain. Passing clouds.15 mph87%29.83 "Hg6 mi
10:20 PM48 °FLight rain. Partly sunny.16 mph87%29.86 "Hg5 mi
9:50 PM48 °FLight rain. Partly sunny.20 mph87%29.83 "Hg6 mi
9:20 PM48 °FLight rain. Broken clouds.20 mph87%29.86 "Hg6 mi
8:50 PM48 °FDrizzle. Broken clouds.21 mph87%29.83 "HgN/A
8:20 PM48 °FDrizzle. Broken clouds.20 mph87%29.83 "Hg5 mi
7:50 PM48 °FDrizzle. Broken clouds.21 mph87%29.83 "Hg4 mi
7:20 PM48 °FDrizzle. Partly sunny.21 mph82%29.86 "HgN/A
6:50 PM48 °FLight rain. Partly sunny.25 mph87%29.86 "HgN/A
6:20 PM46 °FDrizzle. Partly sunny.25 mph87%29.86 "HgN/A
5:50 PM46 °FDrizzle. Broken clouds.25 mph87%29.86 "Hg6 mi
5:20 PM46 °FDrizzle. Broken clouds.20 mph87%29.89 "HgN/A
4:50 PM46 °FLight rain. Partly sunny.25 mph87%29.92 "HgN/A
4:20 PM46 °FDrizzle. Partly sunny.22 mph82%29.89 "HgN/A
3:50 PM46 °FDrizzle. Partly sunny.24 mph82%29.92 "HgN/A
3:20 PM46 °FDrizzle. Partly sunny.25 mph82%29.92 "HgN/A
2:50 PM48 °FDrizzle. Broken clouds.30 mph76%29.92 "HgN/A
2:20 PM46 °FDrizzle. Broken clouds.26 mph87%29.95 "HgN/A
1:50 PM46 °FDrizzle. Partly sunny.26 mph87%29.92 "Hg6 mi
1:20 PM48 °FDrizzle. Broken clouds.26 mph82%29.95 "Hg5 mi
12:50 PM48 °FDrizzle. Broken clouds.28 mph82%29.95 "Hg6 mi
12:20 PM48 °FDrizzle. Broken clouds.26 mph82%29.95 "Hg6 mi
11:50 AM46 °FDrizzle. Broken clouds.26 mph87%29.95 "Hg3 mi
11:20 AM46 °FDrizzle. Broken clouds.28 mph87%29.98 "Hg5 mi
10:50 AM46 °FDrizzle. More clouds than sun.25 mph87%29.98 "Hg5 mi
10:20 AM46 °FDrizzle. Broken clouds.24 mph87%29.98 "Hg4 mi
Weather by CustomWeather, © 2016

See weather overviewHow to use our weather pages